| time (UTC) | temp F | wind direction | speed MPH | gust MPH | rain 1hr in | rain 24hr in | rain mn in | humidity % | barometer mb |
| 20260903121541 | 67 | 164 | 0.0 | 0.0 | 0.01 | 0.88 | 0.07 | 94 | 1014.8 |
| 20260903121039 | 67 | 164 | 0.0 | 0.0 | 0.01 | 0.88 | 0.07 | 94 | 1014.8 |
| 20260903120539 | 67 | 165 | 0.0 | 0.0 | 0.01 | 0.88 | 0.07 | 93 | 1014.7 |
| 20260903120042 | 67 | 164 | 0.0 | 0.0 | 0.00 | 0.87 | 0.06 | 93 | 1014.6 |
| 20260903115538 | 66 | 164 | 0.0 | 0.0 | 0.00 | 0.87 | 0.06 | 93 | 1014.5 |
| 20260903115041 | 66 | 164 | 0.0 | 0.0 | 0.00 | 0.87 | 0.06 | 93 | 1014.5 |
| 20260903114538 | 66 | 164 | 0.0 | 0.0 | 0.00 | 0.87 | 0.06 | 93 | 1014.6 |
| 20260903114037 | 66 | 164 | 0.0 | 0.0 | 0.00 | 0.87 | 0.06 | 93 | 1014.6 |
| 20260903113537 | 66 | 164 | 0.0 | 0.0 | 0.00 | 0.87 | 0.06 | 93 | 1014.6 |
| 20260903113037 | 66 | 164 | 0.0 | 0.0 | 0.00 | 0.87 | 0.06 | 93 | 1014.6 |
| 20260903112542 | 66 | 164 | 0.0 | 0.0 | 0.00 | 0.87 | 0.06 | 93 | 1014.5 |
| 20260903112037 | 66 | 164 | 0.0 | 0.0 | 0.00 | 0.87 | 0.06 | 93 | 1014.2 |
| 20260903111604 | 66 | 164 | 0.0 | 0.0 | 0.00 | 0.87 | 0.06 | 93 | 1014.2 |
| 20260903111138 | 66 | 164 | 0.0 | 0.0 | 0.00 | 0.87 | 0.06 | 93 | 1014.2 |
| 20260903110537 | 66 | 164 | 0.0 | 0.0 | 0.00 | 0.87 | 0.06 | 93 | 1014.3 |
| 20260903110040 | 66 | 164 | 0.0 | 0.0 | 0.00 | 0.87 | 0.06 | 93 | 1014.2 |
| 20260903105539 | 66 | 164 | 0.0 | 0.0 | 0.00 | 0.87 | 0.06 | 93 | 1014.2 |
| 20260903105039 | 66 | 164 | 0.0 | 0.0 | 0.00 | 0.87 | 0.06 | 93 | 1014.2 |
| 20260903104547 | 66 | 164 | 0.0 | 0.0 | 0.00 | 0.87 | 0.06 | 93 | 1014.2 |
| 20260903104035 | 66 | 164 | 0.0 | 0.0 | 0.00 | 0.87 | 0.06 | 93 | 1014.1 |
| 20260903103538 | 66 | 164 | 0.0 | 0.0 | 0.00 | 0.87 | 0.06 | 93 | 1014.1 |
| 20260903103035 | 66 | 164 | 0.0 | 0.0 | 0.00 | 0.87 | 0.06 | 93 | 1014.0 |
| 20260903102535 | 66 | 164 | 0.0 | 0.0 | 0.00 | 0.87 | 0.06 | 93 | 1014.1 |
| 20260903102034 | 66 | 164 | 0.0 | 0.0 | 0.00 | 0.87 | 0.06 | 93 | 1014.2 |
| 20260903101541 | 66 | 164 | 0.0 | 0.0 | 0.00 | 0.87 | 0.06 | 93 | 1014.3 |
| 20260903101034 | 66 | 164 | 0.0 | 0.0 | 0.00 | 0.87 | 0.06 | 93 | 1014.3 |
| 20260903100533 | 66 | 164 | 0.0 | 0.0 | 0.00 | 0.87 | 0.06 | 93 | 1014.3 |
| 20260903100034 | 66 | 164 | 0.0 | 0.0 | 0.00 | 0.87 | 0.06 | 93 | 1014.4 |
| 20260903095533 | 66 | 164 | 0.0 | 0.0 | 0.00 | 0.87 | 0.06 | 93 | 1014.3 |
| 20260903095033 | 66 | 164 | 0.0 | 0.0 | 0.00 | 0.87 | 0.06 | 93 | 1014.4 |
| 20260903094532 | 66 | 164 | 0.0 | 0.0 | 0.00 | 0.87 | 0.06 | 93 | 1014.5 |
| 20260903094033 | 66 | 164 | 0.0 | 0.0 | 0.00 | 0.87 | 0.06 | 93 | 1014.6 |
| 20260903093537 | 66 | 164 | 0.0 | 0.0 | 0.00 | 0.87 | 0.06 | 93 | 1014.8 |
| 20260903093038 | 66 | 164 | 0.0 | 0.0 | 0.00 | 0.87 | 0.06 | 93 | 1014.8 |
| 20260903092532 | 66 | 164 | 0.0 | 0.0 | 0.00 | 0.87 | 0.06 | 93 | 1014.8 |
| 20260903092031 | 67 | 164 | 0.0 | 0.0 | 0.00 | 0.87 | 0.06 | 93 | 1014.6 |
| 20260903091533 | 66 | 164 | 0.0 | 0.0 | 0.00 | 0.87 | 0.06 | 93 | 1014.6 |
| 20260903091031 | 67 | 164 | 0.0 | 0.0 | 0.00 | 0.87 | 0.06 | 93 | 1014.9 |
| 20260903090531 | 67 | 164 | 0.0 | 0.0 | 0.00 | 0.87 | 0.06 | 93 | 1014.6 |
| 20260903090031 | 67 | 164 | 0.0 | 0.0 | 0.00 | 0.87 | 0.06 | 93 | 1014.6 |
| 20260903085531 | 67 | 164 | 0.0 | 0.0 | 0.00 | 0.87 | 0.06 | 93 | 1014.6 |
| 20260903085031 | 67 | 164 | 0.0 | 0.0 | 0.00 | 0.87 | 0.06 | 93 | 1014.6 |
| 20260903084534 | 67 | 163 | 0.0 | 0.0 | 0.00 | 0.87 | 0.06 | 93 | 1014.5 |
| 20260903084030 | 67 | 163 | 0.0 | 0.0 | 0.00 | 0.87 | 0.06 | 93 | 1014.4 |
| 20260903083530 | 67 | 163 | 0.0 | 0.0 | 0.00 | 0.87 | 0.06 | 93 | 1014.2 |
| 20260903083029 | 67 | 163 | 0.0 | 0.0 | 0.00 | 0.87 | 0.06 | 93 | 1014.1 |
| 20260903082529 | 67 | 163 | 0.0 | 0.0 | 0.00 | 0.87 | 0.06 | 93 | 1014.3 |
| 20260903082029 | 67 | 163 | 0.0 | 0.0 | 0.00 | 0.87 | 0.06 | 93 | 1014.5 |
| 20260903081529 | 67 | 163 | 0.0 | 0.0 | 0.00 | 0.87 | 0.06 | 93 | 1014.5 |
| 20260903081032 | 67 | 163 | 0.0 | 0.0 | 0.00 | 0.87 | 0.06 | 93 | 1014.5 |
| 20260903080531 | 67 | 163 | 0.0 | 0.0 | 0.00 | 0.87 | 0.06 | 93 | 1014.6 |
| 20260903080027 | 67 | 163 | 0.0 | 0.0 | 0.00 | 0.87 | 0.06 | 93 | 1014.6 |
| 20260903075527 | 67 | 163 | 0.0 | 0.0 | 0.00 | 0.87 | 0.06 | 93 | 1014.5 |
| 20260903075027 | 67 | 163 | 0.0 | 0.0 | 0.00 | 0.87 | 0.06 | 93 | 1014.6 |
| 20260903074526 | 67 | 163 | 0.0 | 0.0 | 0.00 | 0.87 | 0.06 | 93 | 1014.6 |
| 20260903074026 | 67 | 163 | 0.0 | 0.0 | 0.00 | 0.87 | 0.06 | 93 | 1014.5 |
| 20260903073528 | 67 | 163 | 0.0 | 0.0 | 0.00 | 0.87 | 0.06 | 93 | 1014.8 |
| 20260903073039 | 67 | 163 | 0.0 | 0.0 | 0.00 | 0.87 | 0.06 | 92 | 1014.8 |
| 20260903072525 | 67 | 163 | 0.0 | 0.0 | 0.00 | 0.87 | 0.06 | 92 | 1014.6 |
| 20260903072025 | 67 | 163 | 0.0 | 0.0 | 0.00 | 0.87 | 0.06 | 92 | 1014.5 |
| 20260903071526 | 67 | 163 | 0.0 | 0.0 | 0.00 | 0.87 | 0.06 | 92 | 1014.4 |
| 20260903071025 | 67 | 163 | 0.0 | 0.0 | 0.00 | 0.87 | 0.06 | 92 | 1014.2 |
| 20260903070528 | 67 | 163 | 0.0 | 1.0 | 0.00 | 0.87 | 0.06 | 92 | 1014.3 |
| 20260903070035 | 67 | 132 | 0.0 | 2.0 | 0.00 | 0.87 | 0.06 | 92 | 1014.2 |
| 20260903065523 | 67 | 132 | 0.0 | 2.0 | 0.00 | 0.87 | 0.06 | 92 | 1014.5 |
| 20260903065023 | 67 | 132 | 0.0 | 2.0 | 0.00 | 0.87 | 0.06 | 92 | 1014.9 |
| 20260903064523 | 67 | 335 | 0.0 | 0.0 | 0.00 | 0.87 | 0.06 | 92 | 1014.9 |
| 20260903064023 | 67 | 331 | 0.0 | 0.0 | 0.00 | 0.87 | 0.06 | 92 | 1014.8 |
| 20260903063523 | 67 | 331 | 0.0 | 0.0 | 0.00 | 0.87 | 0.06 | 92 | 1014.5 |
| 20260903063026 | 67 | 331 | 0.0 | 0.0 | 0.00 | 0.87 | 0.06 | 92 | 1014.5 |
| 20260903062525 | 67 | 331 | 0.0 | 0.0 | 0.00 | 0.87 | 0.06 | 92 | 1014.6 |
| 20260903062026 | 67 | 331 | 0.0 | 0.0 | 0.00 | 0.87 | 0.06 | 92 | 1014.7 |
| 20260903061534 | 67 | 331 | 0.0 | 3.0 | 0.00 | 0.87 | 0.06 | 92 | 1014.6 |
| 20260903061020 | 67 | 331 | 1.0 | 4.0 | 0.00 | 0.87 | 0.06 | 92 | 1014.7 |
| 20260903060521 | 67 | 311 | 0.0 | 6.0 | 0.00 | 0.87 | 0.06 | 92 | 1014.8 |
| 20260903060020 | 67 | 284 | 2.0 | 9.0 | 0.00 | 0.87 | 0.06 | 92 | 1015.1 |
| 20260903055520 | 67 | 286 | 4.0 | 9.0 | 0.00 | 0.87 | 0.06 | 92 | 1015.0 |
| 20260903055019 | 67 | 236 | 3.0 | 8.0 | 0.00 | 0.87 | 0.06 | 92 | 1014.9 |
| 20260903054519 | 67 | 241 | 3.0 | 8.0 | 0.00 | 0.87 | 0.06 | 92 | 1014.9 |
| 20260903054019 | 67 | 262 | 2.0 | 6.0 | 0.01 | 0.87 | 0.06 | 92 | 1014.7 |
| 20260903053519 | 67 | 217 | 0.0 | 8.0 | 0.01 | 0.87 | 0.06 | 92 | 1014.7 |
| 20260903053018 | 68 | 173 | 3.0 | 9.0 | 0.02 | 0.87 | 0.06 | 92 | 1015.0 |
| 20260903052518 | 68 | 239 | 4.0 | 9.0 | 0.03 | 0.87 | 0.06 | 92 | 1015.0 |
| 20260903052018 | 68 | 215 | 3.0 | 8.0 | 0.03 | 0.87 | 0.06 | 92 | 1014.8 |
| 20260903051517 | 68 | 157 | 1.0 | 9.0 | 0.04 | 0.87 | 0.06 | 92 | 1015.0 |
| 20260903051016 | 68 | 148 | 3.0 | 9.0 | 0.04 | 0.87 | 0.06 | 92 | 1015.1 |
| 20260903050516 | 68 | 203 | 4.0 | 9.0 | 0.05 | 0.87 | 0.06 | 92 | 1015.0 |
| 20260903050016 | 68 | 228 | 1.0 | 9.0 | 0.06 | 0.87 | 0.06 | 92 | 1015.0 |
| 20260903045515 | 68 | 188 | 6.0 | 12.0 | 0.07 | 0.87 | 0.06 | 92 | 1014.8 |
| 20260903045014 | 68 | 142 | 3.0 | 12.0 | 0.08 | 0.87 | 0.06 | 92 | 1015.2 |
| 20260903044516 | 68 | 174 | 4.0 | 12.0 | 0.09 | 0.87 | 0.06 | 92 | 1015.0 |
| 20260903044013 | 68 | 130 | 5.0 | 12.0 | 0.09 | 0.86 | 0.05 | 92 | 1015.0 |
| 20260903043513 | 68 | 187 | 5.0 | 13.0 | 0.10 | 0.86 | 0.05 | 91 | 1015.6 |
| 20260903043011 | 68 | 173 | 3.0 | 9.0 | 0.09 | 0.85 | 0.04 | 91 | 1015.9 |
| 20260903042512 | 69 | 75 | 3.0 | 8.0 | 0.08 | 0.84 | 0.03 | 91 | 1016.1 |
| 20260903042008 | 69 | 286 | 2.0 | 10.0 | 0.09 | 0.84 | 0.03 | 91 | 1016.4 |
| 20260903041507 | 69 | 185 | 2.0 | 10.0 | 0.09 | 0.83 | 0.02 | 91 | 1016.8 |
| 20260903041006 | 69 | 215 | 2.0 | 9.0 | 0.10 | 0.83 | 0.02 | 91 | 1017.2 |
| 20260903040505 | 69 | 222 | 3.0 | 9.0 | 0.09 | 0.81 | 0.00 | 91 | 1017.5 |
| 20260903040004 | 69 | 200 | 1.0 | 9.0 | 0.10 | 0.81 | 0.00 | 91 | 1017.5 |
| 20260903035507 | 69 | 272 | 1.0 | 9.0 | 0.10 | 0.80 | 0.80 | 91 | 1017.3 |
| 20260903035003 | 69 | 242 | 3.0 | 9.0 | 0.11 | 0.79 | 0.79 | 91 | 1017.4 |
| 20260903034509 | 70 | 204 | 3.0 | 9.0 | 0.11 | 0.78 | 0.78 | 91 | 1016.8 |
| 20260903034002 | 70 | 219 | 4.0 | 9.0 | 0.12 | 0.77 | 0.77 | 91 | 1016.1 |
| 20260903033504 | 70 | 255 | 3.0 | 8.0 | 0.12 | 0.76 | 0.76 | 91 | 1015.7 |
| 20260903033003 | 70 | 140 | 1.0 | 4.0 | 0.13 | 0.76 | 0.76 | 91 | 1015.2 |
| 20260903032503 | 70 | 159 | 0.0 | 5.0 | 0.14 | 0.75 | 0.75 | 91 | 1015.2 |
| 20260903032003 | 70 | 166 | 2.0 | 5.0 | 0.14 | 0.75 | 0.75 | 91 | 1015.5 |
| 20260903031503 | 70 | 167 | 1.0 | 10.0 | 0.14 | 0.74 | 0.74 | 91 | 1015.6 |
| 20260903031002 | 70 | 171 | 2.0 | 10.0 | 0.14 | 0.73 | 0.73 | 91 | 1015.6 |
| 20260903030502 | 70 | 159 | 2.0 | 8.0 | 0.18 | 0.72 | 0.72 | 91 | 1015.6 |
| 20260903030001 | 71 | 152 | 2.0 | 8.0 | 0.26 | 0.70 | 0.70 | 91 | 1015.8 |
| 20260903025504 | 71 | 123 | 2.0 | 7.0 | 0.33 | 0.70 | 0.70 | 91 | 1016.2 |
| 20260903025002 | 71 | 188 | 2.0 | 8.0 | 0.31 | 0.68 | 0.68 | 91 | 1016.5 |
| 20260903024600 | 71 | 156 | 2.0 | 9.0 | 0.30 | 0.67 | 0.67 | 91 | 1016.8 |
| 20260903024101 | 71 | 251 | 3.0 | 12.0 | 0.28 | 0.65 | 0.65 | 90 | 1017.1 |
| 20260903023501 | 71 | 219 | 5.0 | 12.0 | 0.28 | 0.64 | 0.64 | 91 | 1017.5 |
| 20260903023002 | 71 | 267 | 2.0 | 8.0 | 0.26 | 0.62 | 0.62 | 90 | 1017.5 |
| 20260903022602 | 71 | 256 | 2.0 | 8.0 | 0.25 | 0.61 | 0.61 | 90 | 1017.5 |
| 20260903022100 | 71 | 150 | 1.0 | 12.0 | 0.26 | 0.61 | 0.61 | 90 | 1017.4 |
| 20260903021601 | 72 | 229 | 4.0 | 12.0 | 0.25 | 0.60 | 0.60 | 90 | 1017.2 |
| 20260903021100 | 72 | 341 | 2.0 | 7.0 | 0.24 | 0.59 | 0.59 | 90 | 1017.1 |
| 20260903020600 | 72 | 136 | 2.0 | 8.0 | 0.20 | 0.55 | 0.55 | 90 | 1017.5 |
| 20260903020058 | 72 | 227 | 2.0 | 9.0 | 0.09 | 0.44 | 0.44 | 90 | 1018.5 |
| 20260903015558 | 72 | 284 | 1.0 | 8.0 | 0.02 | 0.37 | 0.37 | 89 | 1017.7 |
| 20260903015058 | 72 | 29 | 1.0 | 9.0 | 0.02 | 0.37 | 0.37 | 89 | 1015.8 |
| 20260903014609 | 72 | 232 | 3.0 | 10.0 | 0.02 | 0.37 | 0.37 | 89 | 1015.9 |
| 20260903014100 | 72 | 159 | 0.0 | 5.0 | 0.01 | 0.36 | 0.36 | 89 | 1015.4 |
| 20260903013602 | 72 | 126 | 0.0 | 4.0 | 0.01 | 0.36 | 0.36 | 89 | 1016.1 |
| 20260903013102 | 72 | 169 | 2.0 | 7.0 | 0.01 | 0.36 | 0.36 | 89 | 1016.2 |
| 20260903012556 | 72 | 161 | 1.0 | 7.0 | 0.01 | 0.36 | 0.36 | 88 | 1016.5 |
| 20260903012056 | 72 | 311 | 0.0 | 0.0 | 0.00 | 0.35 | 0.35 | 88 | 1016.5 |
| 20260903011608 | 72 | 311 | 0.0 | 0.0 | 0.00 | 0.35 | 0.35 | 88 | 1016.6 |
| 20260903011057 | 72 | 311 | 0.0 | 0.0 | 0.00 | 0.35 | 0.35 | 88 | 1016.5 |
| 20260903010556 | 72 | 311 | 0.0 | 0.0 | 0.00 | 0.35 | 0.35 | 88 | 1016.3 |
| 20260903010116 | 73 | 312 | 0.0 | 0.0 | 0.00 | 0.35 | 0.35 | 88 | 1016.1 |
| 20260903005557 | 73 | 215 | 0.0 | 0.0 | 0.00 | 0.35 | 0.35 | 88 | 1015.9 |
| 20260903005055 | 73 | 215 | 0.0 | 0.0 | 0.00 | 0.35 | 0.35 | 88 | 1015.7 |
| 20260903004556 | 73 | 215 | 0.0 | 1.0 | 0.00 | 0.35 | 0.35 | 88 | 1015.5 |
| 20260903004055 | 73 | 215 | 0.0 | 4.0 | 0.00 | 0.35 | 0.35 | 88 | 1015.3 |
| 20260903003556 | 73 | 36 | 1.0 | 4.0 | 0.00 | 0.35 | 0.35 | 88 | 1015.1 |
| 20260903003055 | 73 | 334 | 1.0 | 8.0 | 0.00 | 0.35 | 0.35 | 88 | 1015.1 |
| 20260903002555 | 73 | 42 | 2.0 | 8.0 | 0.00 | 0.35 | 0.35 | 87 | 1014.7 |
| 20260903002054 | 73 | 348 | 2.0 | 7.0 | 0.00 | 0.35 | 0.35 | 87 | 1014.9 |
| 20260903001555 | 73 | 121 | 0.0 | 5.0 | 0.00 | 0.35 | 0.35 | 87 | 1015.3 |
| 20260903001056 | 73 | 250 | 3.0 | 6.0 | 0.00 | 0.35 | 0.35 | 87 | 1015.4 |
| 20260903000553 | 73 | 190 | 1.0 | 5.0 | 0.00 | 0.35 | 0.35 | 87 | 1015.3 |
| 20260903000053 | 73 | 153 | 1.0 | 5.0 | 0.00 | 0.35 | 0.35 | 87 | 1015.4 |
| 20260902235553 | 73 | 20 | 0.0 | 2.0 | 0.00 | 0.35 | 0.35 | 87 | 1015.5 |
| 20260902235054 | 73 | 20 | 0.0 | 2.0 | 0.00 | 0.35 | 0.35 | 87 | 1015.9 |
| 20260902234554 | 73 | 19 | 0.0 | 2.0 | 0.00 | 0.35 | 0.35 | 86 | 1015.9 |
| 20260902234052 | 74 | 20 | 0.0 | 2.0 | 0.00 | 0.35 | 0.35 | 86 | 1015.7 |
| 20260902233553 | 74 | 20 | 0.0 | 5.0 | 0.00 | 0.35 | 0.35 | 86 | 1015.8 |
| 20260902233052 | 74 | 19 | 1.0 | 5.0 | 0.00 | 0.35 | 0.35 | 86 | 1015.6 |
| 20260902232552 | 74 | 141 | 0.0 | 4.0 | 0.00 | 0.35 | 0.35 | 86 | 1015.5 |
| 20260902232051 | 74 | 176 | 0.0 | 7.0 | 0.00 | 0.35 | 0.35 | 86 | 1015.5 |
| 20260902231607 | 74 | 82 | 1.0 | 7.0 | 0.00 | 0.35 | 0.35 | 86 | 1015.6 |
| 20260902231050 | 74 | 182 | 1.0 | 5.0 | 0.00 | 0.35 | 0.35 | 86 | 1015.4 |
| 20260902230554 | 74 | 205 | 0.0 | 4.0 | 0.00 | 0.35 | 0.35 | 86 | 1015.6 |
| 20260902230050 | 74 | 251 | 2.0 | 5.0 | 0.00 | 0.35 | 0.35 | 85 | 1015.4 |
| 20260902225550 | 74 | 336 | 2.0 | 5.0 | 0.00 | 0.35 | 0.35 | 85 | 1015.1 |
| 20260902225052 | 74 | 29 | 0.0 | 7.0 | 0.00 | 0.35 | 0.35 | 85 | 1015.1 |
| 20260902224600 | 75 | 51 | 1.0 | 8.0 | 0.00 | 0.35 | 0.35 | 85 | 1015.3 |
| 20260902224052 | 75 | 24 | 3.0 | 5.0 | 0.00 | 0.35 | 0.35 | 86 | 1015.1 |
| 20260902223548 | 75 | 48 | 1.0 | 6.0 | 0.00 | 0.35 | 0.35 | 86 | 1015.2 |
| 20260902223054 | 75 | 16 | 2.0 | 5.0 | 0.00 | 0.35 | 0.35 | 86 | 1015.2 |
| 20260902222547 | 75 | 30 | 0.0 | 4.0 | 0.00 | 0.35 | 0.35 | 86 | 1015.2 |
| 20260902222147 | 75 | 342 | 1.0 | 4.0 | 0.00 | 0.35 | 0.35 | 86 | 1015.3 |
| 20260902221559 | 75 | 51 | 0.0 | 4.0 | 0.00 | 0.35 | 0.35 | 86 | 1015.3 |
| 20260902221146 | 75 | 314 | 0.0 | 4.0 | 0.00 | 0.35 | 0.35 | 86 | 1015.5 |
| 20260902220546 | 75 | 14 | 0.0 | 3.0 | 0.00 | 0.35 | 0.35 | 86 | 1015.4 |
| 20260902220056 | 75 | 161 | 0.0 | 4.0 | 0.00 | 0.35 | 0.35 | 86 | 1015.5 |
| 20260902215545 | 75 | 331 | 1.0 | 8.0 | 0.00 | 0.35 | 0.35 | 87 | 1015.6 |
| 20260902215045 | 75 | 132 | 2.0 | 8.0 | 0.00 | 0.35 | 0.35 | 87 | 1015.7 |
| 20260902214545 | 75 | 47 | 2.0 | 4.0 | 0.00 | 0.35 | 0.35 | 87 | 1015.9 |
| 20260902214045 | 75 | 233 | 0.0 | 0.0 | 0.00 | 0.35 | 0.35 | 87 | 1016.0 |
| 20260902213544 | 75 | 228 | 0.0 | 3.0 | 0.00 | 0.35 | 0.35 | 86 | 1016.1 |
| 20260902213044 | 75 | 106 | 0.0 | 3.0 | 0.00 | 0.35 | 0.35 | 86 | 1016.2 |
| 20260902212544 | 75 | 59 | 0.0 | 3.0 | 0.00 | 0.35 | 0.35 | 86 | 1016.0 |
| 20260902212043 | 75 | 202 | 1.0 | 3.0 | 0.00 | 0.35 | 0.35 | 86 | 1016.0 |
| 20260902211544 | 75 | 53 | 1.0 | 3.0 | 0.00 | 0.35 | 0.35 | 86 | 1016.1 |
| 20260902211044 | 75 | 60 | 0.0 | 3.0 | 0.00 | 0.35 | 0.35 | 86 | 1016.1 |
| 20260902210542 | 75 | 61 | 0.0 | 6.0 | 0.00 | 0.35 | 0.35 | 86 | 1016.0 |
| 20260902210046 | 75 | 148 | 1.0 | 8.0 | 0.01 | 0.35 | 0.35 | 86 | 1016.2 |
| 20260902205539 | 75 | 105 | 2.0 | 8.0 | 0.01 | 0.35 | 0.35 | 86 | 1016.3 |
| 20260902205038 | 75 | 174 | 2.0 | 8.0 | 0.01 | 0.35 | 0.35 | 87 | 1016.3 |
| 20260902204540 | 75 | 267 | 2.0 | 10.0 | 0.01 | 0.35 | 0.35 | 87 | 1016.2 |
| 20260902204034 | 75 | 248 | 3.0 | 10.0 | 0.01 | 0.35 | 0.35 | 88 | 1015.9 |
| 20260902203533 | 75 | 213 | 1.0 | 10.0 | 0.01 | 0.35 | 0.35 | 88 | 1015.8 |
| 20260902203034 | 75 | 248 | 2.0 | 8.0 | 0.01 | 0.35 | 0.35 | 88 | 1015.6 |
| 20260902202531 | 75 | 32 | 1.0 | 9.0 | 0.01 | 0.35 | 0.35 | 89 | 1015.8 |
| 20260902202029 | 75 | 355 | 3.0 | 9.0 | 0.01 | 0.35 | 0.35 | 89 | 1015.6 |
| 20260902201541 | 75 | 346 | 1.0 | 7.0 | 0.01 | 0.35 | 0.35 | 90 | 1015.5 |
| 20260902201027 | 75 | 327 | 2.0 | 8.0 | 0.01 | 0.35 | 0.35 | 90 | 1015.7 |
| 20260902200525 | 75 | 96 | 4.0 | 8.0 | 0.00 | 0.34 | 0.34 | 91 | 1016.0 |
| 20260902200024 | 75 | 88 | 2.0 | 9.0 | 0.00 | 0.34 | 0.34 | 91 | 1016.2 |
| 20260902195523 | 75 | 141 | 4.0 | 9.0 | 0.00 | 0.34 | 0.34 | 92 | 1016.3 |
| 20260902195022 | 74 | 51 | 2.0 | 7.0 | 0.00 | 0.34 | 0.34 | 92 | 1016.3 |
| 20260902194529 | 74 | 58 | 1.0 | 6.0 | 0.00 | 0.34 | 0.34 | 92 | 1016.5 |
| 20260902194019 | 74 | 92 | 3.0 | 9.0 | 0.00 | 0.34 | 0.34 | 93 | 1016.6 |
| 20260902193517 | 74 | 137 | 5.0 | 9.0 | 0.00 | 0.34 | 0.34 | 92 | 1016.6 |
| 20260902193035 | 74 | 198 | 0.0 | 4.0 | 0.00 | 0.34 | 0.34 | 93 | 1016.6 |
| 20260902192514 | 74 | 84 | 1.0 | 6.0 | 0.00 | 0.34 | 0.34 | 93 | 1016.8 |
| 20260902192013 | 74 | 217 | 2.0 | 7.0 | 0.00 | 0.34 | 0.34 | 93 | 1016.8 |
| 20260902191513 | 74 | 150 | 0.0 | 7.0 | 0.00 | 0.34 | 0.34 | 93 | 1016.9 |
| 20260902191014 | 74 | 25 | 0.0 | 4.0 | 0.00 | 0.34 | 0.34 | 94 | 1016.8 |
| 20260902190509 | 74 | 18 | 1.0 | 8.0 | 0.00 | 0.34 | 0.34 | 94 | 1016.8 |
| 20260902190012 | 74 | 32 | 3.0 | 8.0 | 0.00 | 0.34 | 0.34 | 94 | 1016.8 |
| 20260902185507 | 74 | 142 | 2.0 | 6.0 | 0.00 | 0.34 | 0.34 | 94 | 1016.8 |
| 20260902185006 | 74 | 100 | 0.0 | 5.0 | 0.00 | 0.34 | 0.34 | 94 | 1016.9 |
| 20260902184502 | 74 | 51 | 1.0 | 11.0 | 0.00 | 0.34 | 0.34 | 94 | 1016.7 |
| 20260902184005 | 73 | 249 | 3.0 | 11.0 | 0.00 | 0.34 | 0.34 | 94 | 1016.7 |
| 20260902183501 | 73 | 294 | 1.0 | 7.0 | 0.00 | 0.34 | 0.34 | 94 | 1016.6 |
| 20260902183001 | 73 | 153 | 4.0 | 10.0 | 0.00 | 0.34 | 0.34 | 94 | 1016.7 |
| 20260902182504 | 73 | 88 | 2.0 | 10.0 | 0.00 | 0.34 | 0.34 | 94 | 1016.8 |
| 20260902182001 | 73 | 209 | 2.0 | 5.0 | 0.00 | 0.34 | 0.34 | 94 | 1016.7 |
| 20260902181612 | 73 | 103 | 1.0 | 7.0 | 0.00 | 0.34 | 0.34 | 94 | 1016.8 |
| 20260902181104 | 73 | 13 | 0.0 | 7.0 | 0.00 | 0.34 | 0.34 | 94 | 1016.7 |
| 20260902180557 | 73 | 33 | 0.0 | 7.0 | 0.00 | 0.34 | 0.34 | 94 | 1016.9 |
| 20260902180100 | 73 | 25 | 2.0 | 7.0 | 0.00 | 0.34 | 0.34 | 94 | 1017.0 |
| 20260902175555 | 73 | 67 | 0.0 | 2.0 | 0.00 | 0.34 | 0.34 | 94 | 1017.1 |
| 20260902175053 | 73 | 69 | 0.0 | 4.0 | 0.00 | 0.34 | 0.34 | 94 | 1017.2 |
| 20260902174552 | 73 | 68 | 1.0 | 5.0 | 0.00 | 0.34 | 0.34 | 94 | 1017.3 |
| 20260902174050 | 73 | 25 | 3.0 | 6.0 | 0.00 | 0.34 | 0.34 | 94 | 1017.4 |
| 20260902173549 | 73 | 42 | 3.0 | 6.0 | 0.00 | 0.34 | 0.34 | 94 | 1017.5 |
| 20260902173047 | 73 | 23 | 2.0 | 5.0 | 0.00 | 0.34 | 0.34 | 94 | 1017.5 |
| 20260902172545 | 73 | 360 | 2.0 | 4.0 | 0.00 | 0.34 | 0.34 | 94 | 1017.6 |
| 20260902172043 | 73 | 19 | 0.0 | 0.0 | 0.00 | 0.34 | 0.34 | 94 | 1017.7 |
| 20260902171552 | 73 | 32 | 0.0 | 0.0 | 0.00 | 0.34 | 0.34 | 94 | 1017.8 |
| 20260902171045 | 73 | 32 | 0.0 | 0.0 | 0.00 | 0.34 | 0.34 | 94 | 1017.9 |
| 20260902170543 | 73 | 46 | 0.0 | 0.0 | 0.00 | 0.34 | 0.34 | 94 | 1017.9 |
| 20260902170042 | 73 | 22 | 0.0 | 0.0 | 0.00 | 0.34 | 0.34 | 94 | 1017.9 |
| 20260902165541 | 73 | 22 | 0.0 | 0.0 | 0.00 | 0.35 | 0.34 | 94 | 1017.9 |
| 20260902165039 | 73 | 21 | 0.0 | 0.0 | 0.00 | 0.35 | 0.34 | 94 | 1018.0 |
| 20260902164541 | 73 | 23 | 0.0 | 0.0 | 0.00 | 0.35 | 0.34 | 94 | 1018.0 |
| 20260902164036 | 73 | 23 | 0.0 | 2.0 | 0.00 | 0.35 | 0.34 | 94 | 1018.0 |
| 20260902163534 | 73 | 17 | 0.0 | 2.0 | 0.01 | 0.35 | 0.34 | 94 | 1018.0 |
| 20260902163038 | 73 | 17 | 0.0 | 2.0 | 0.01 | 0.35 | 0.34 | 94 | 1017.9 |
| 20260902162532 | 73 | 34 | 0.0 | 0.0 | 0.01 | 0.35 | 0.34 | 94 | 1017.9 |
| 20260902162030 | 73 | 355 | 0.0 | 0.0 | 0.01 | 0.35 | 0.34 | 94 | 1017.8 |
| 20260902161529 | 73 | 355 | 0.0 | 0.0 | 0.01 | 0.35 | 0.34 | 94 | 1017.7 |
| 20260902161028 | 73 | 25 | 0.0 | 0.0 | 0.01 | 0.35 | 0.34 | 94 | 1017.6 |
| 20260902160530 | 73 | 5 | 0.0 | 0.0 | 0.02 | 0.35 | 0.34 | 95 | 1017.5 |
| 20260902160025 | 73 | 360 | 0.0 | 0.0 | 0.03 | 0.35 | 0.34 | 94 | 1017.6 |
| 20260902155527 | 73 | 360 | 0.0 | 1.0 | 0.03 | 0.35 | 0.34 | 94 | 1017.6 |
| 20260902155023 | 72 | 360 | 0.0 | 7.0 | 0.03 | 0.35 | 0.34 | 94 | 1017.5 |
| 20260902154523 | 72 | 291 | 0.0 | 4.0 | 0.03 | 0.35 | 0.34 | 94 | 1017.4 |
| 20260902154019 | 72 | 273 | 0.0 | 0.0 | 0.03 | 0.35 | 0.34 | 94 | 1017.3 |
| 20260902153521 | 72 | 273 | 0.0 | 1.0 | 0.02 | 0.34 | 0.33 | 94 | 1017.6 |
| 20260902153039 | 72 | 271 | 0.0 | 4.0 | 0.02 | 0.34 | 0.33 | 94 | 1017.7 |
| 20260902152514 | 72 | 277 | 2.0 | 4.0 | 0.03 | 0.34 | 0.33 | 94 | 1017.9 |
| 20260902152015 | 72 | 314 | 0.0 | 1.0 | 0.13 | 0.34 | 0.33 | 94 | 1017.8 |
| 20260902151512 | 72 | 315 | 0.0 | 2.0 | 0.19 | 0.34 | 0.33 | 94 | 1017.8 |
| 20260902151014 | 72 | 265 | 0.0 | 0.0 | 0.25 | 0.34 | 0.33 | 94 | 1017.7 |
| 20260902150510 | 72 | 217 | 0.0 | 0.0 | 0.32 | 0.33 | 0.32 | 94 | 1017.7 |
| 20260902150011 | 72 | 217 | 0.0 | 0.0 | 0.31 | 0.32 | 0.31 | 94 | 1017.9 |
| 20260902145510 | 72 | 217 | 0.0 | 0.0 | 0.31 | 0.35 | 0.31 | 94 | 1017.9 |
| 20260902145010 | 72 | 218 | 0.0 | 0.0 | 0.31 | 0.35 | 0.31 | 94 | 1017.9 |
| 20260902144509 | 72 | 219 | 0.0 | 0.0 | 0.31 | 0.35 | 0.31 | 94 | 1018.0 |
| 20260902144008 | 72 | 219 | 0.0 | 0.0 | 0.31 | 0.35 | 0.31 | 94 | 1017.8 |
| 20260902143507 | 72 | 219 | 0.0 | 3.0 | 0.31 | 0.35 | 0.31 | 94 | 1017.6 |
| 20260902143006 | 72 | 137 | 0.0 | 4.0 | 0.31 | 0.35 | 0.31 | 94 | 1017.4 |
| 20260902142505 | 72 | 175 | 1.0 | 6.0 | 0.30 | 0.34 | 0.30 | 94 | 1017.5 |
| 20260902142003 | 72 | 262 | 1.0 | 6.0 | 0.19 | 0.23 | 0.19 | 94 | 1017.9 |
| 20260902141504 | 72 | 334 | 0.0 | 4.0 | 0.13 | 0.17 | 0.13 | 94 | 1017.6 |
| 20260902141101 | 72 | 44 | 2.0 | 4.0 | 0.08 | 0.12 | 0.08 | 94 | 1017.4 |
| 20260902140602 | 72 | 207 | 0.0 | 0.0 | 0.00 | 0.04 | 0.00 | 94 | 1017.9 |
| 20260902140057 | 72 | 207 | 0.0 | 2.0 | 0.00 | 0.04 | 0.00 | 94 | 1017.8 |
| 20260902135555 | 72 | 207 | 0.0 | 2.0 | 0.00 | 0.30 | 0.00 | 94 | 1017.9 |
| 20260902135055 | 72 | 207 | 0.0 | 4.0 | 0.00 | 0.30 | 0.00 | 94 | 1018.1 |
| 20260902134556 | 72 | 281 | 0.0 | 3.0 | 0.00 | 0.30 | 0.00 | 94 | 1018.3 |
| 20260902134052 | 72 | 173 | 0.0 | 4.0 | 0.00 | 0.30 | 0.00 | 94 | 1018.2 |
| 20260902133551 | 72 | 267 | 1.0 | 4.0 | 0.00 | 0.30 | 0.00 | 94 | 1018.1 |
| 20260902133049 | 72 | 261 | 2.0 | 6.0 | 0.00 | 0.30 | 0.00 | 94 | 1017.9 |
| 20260902132548 | 72 | 146 | 2.0 | 6.0 | 0.00 | 0.30 | 0.00 | 94 | 1017.5 |
| 20260902132051 | 71 | 320 | 0.0 | 0.0 | 0.00 | 0.30 | 0.00 | 94 | 1017.4 |
| 20260902131549 | 71 | 217 | 0.0 | 0.0 | 0.00 | 0.30 | 0.00 | 94 | 1017.4 |
| 20260902131048 | 71 | 239 | 0.0 | 0.0 | 0.00 | 0.30 | 0.00 | 94 | 1017.9 |
| 20260902130549 | 71 | 239 | 0.0 | 0.0 | 0.00 | 0.30 | 0.00 | 94 | 1017.9 |
| 20260902130048 | 71 | 239 | 0.0 | 0.0 | 0.00 | 0.30 | 0.00 | 94 | 1017.5 |
| 20260902125550 | 71 | 239 | 0.0 | 0.0 | 0.00 | 0.76 | 0.00 | 94 | 1017.6 |
| 20260902125047 | 70 | 239 | 0.0 | 0.0 | 0.00 | 0.76 | 0.00 | 94 | 1017.5 |
| 20260902124547 | 70 | 238 | 0.0 | 0.0 | 0.00 | 0.76 | 0.00 | 94 | 1017.6 |
| 20260902124045 | 70 | 241 | 0.0 | 0.0 | 0.00 | 0.76 | 0.00 | 94 | 1017.6 |
| 20260902123545 | 70 | 241 | 0.0 | 0.0 | 0.00 | 0.76 | 0.00 | 93 | 1017.5 |
| 20260902123052 | 69 | 241 | 0.0 | 0.0 | 0.00 | 0.76 | 0.00 | 93 | 1017.4 |
| 20260902122545 | 69 | 241 | 0.0 | 0.0 | 0.00 | 0.76 | 0.00 | 93 | 1017.3 |
| 20260902122047 | 69 | 241 | 0.0 | 0.0 | 0.00 | 0.76 | 0.00 | 93 | 1017.2 |